CAPE
1976 2111 2048 2009 2016 2036 1885 1976 2132 1953 2006 2003 1913 1974 1837 1807 1770 1842 1886 2013 2048 1828 1817 2245 2704 2695 2608 2444 2778 3143 3198 3160 3043 2950 3116 3177 3125 3221 3391 3401 3234 3094 2974 2823 2872 2841 2695 2678 2635 2550 2452 2176 2170 2765 2950 2858 2798 2658 2465 2327 2266 2417 2408 2440 2361 2160 2138 2367 2842 3140 3286 3454 3276 2931 2950 2856 2707 2870 3124 3195 3166 3089 3064 3151 3187
2455 2436 2308 2048 1918 1905 1809 2015 2123 2103 1923 1960 1962 1816 1887 1897 1714 1698 1756 1566 1700 1819 1813 1788 2139 2718 2699 2486 2540 2746 2937 2988 3031 2955 2888 3034 3170 3180 3194 3162 3042 2918 2858 2714 2469 2366 2454 2527 2484 2427 2437 2348 2287 2449 2302 2310 2374 2418 2386 2394 2658 2513 2546 2495 2438 2357 2156 2157 2283 2427 2709 2979 2852 2792 2707 2547 2602 2886 3051 3008 2955 2863 2848 2908 2942
2442 2496 2500 2313 2056 1783 1691 1815 2079 2172 2033 1869 1878 1881 1782 1609 1587 1530 1421 1410 1415 1628 1628 1819 1843 2068 2545 2594 2494 2618 2684 2752 2818 2934 2893 2858 2949 3027 2981 2857 2771 2760 2722 2687 2552 2306 2177 2149 2204 2374 2637 2655 2455 2245 2264 2272 2111 2119 2103 2022 2190 2277 2357 2458 2420 2350 2334 2292 2331 2422 2648 2820 2847 2835 2837 2688 2861 3098 3106 2980 2862 2852 2849 2911 3031
2282 2365 2561 2374 1969 1866 1804 1580 1697 1976 2092 1974 1832 1794 1765 1599 1387 1200 1193 1198 1322 1370 1408 1656 1907 1954 2060 2215 2377 2358 2302 2332 2359 2443 2666 2764 2734 2695 2660 2564 2451 2408 2371 2414 2452 2410 2231 2134 2218 2252 2144 2270 2288 2184 2176 2166 2162 2075 1990 1933 1719 1883 1943 1960 2312 2290 2224 2123 2109 2298 2503 2684 2906 2859 2700 2966 3122 3070 2963 2946 2982 3034 3101 3152 3129
2291 2205 1896 1689 1577 1773 1923 1908 1524 1582 1748 1900 1895 1793 1676 1582 1415 1229 1114 1024 1032 1217 1295 1276 1542 1952 1995 2018 2069 2128 2084 2014 2085 2124 2085 2257 2414 2413 2350 2259 2170 2071 1998 1993 2661 2412 2440 2429 2414 2364 2321 2238 2114 2030 2044 2065 2085 2083 2060 1942 1848 1737 1606 1723 1926 2154 2168 2109 2029 2157 2482 2664 2713 2898 3233 3159 2668 2513 2690 2918 3076 3081 2984 2839 2729
2368 2303 2081 1577 1479 1544 1799 2024 1914 1770 1520 1617 1706 1722 1638 1556 1467 1226 967 1031 943 938 1128 1231 1213 1431 1890 2008 2024 2023 1977 1916 1924 1986 1992 1912 2046 2149 2171 2136 2024 1926 1894 1929 1964 2012 2320 2404 2327 2254 2205 2117 2063 1998 1885 1770 1806 1952 1998 1980 1805 1567 1486 1542 1734 1833 2100 2080 1915 1761 1638 1894 2315 2464 2450 2334 2367 2535 2783 3012 2862 2413 2247 2329 2309
2389 2364 2239 1683 1282 1586 2066 2130 2103 2016 1885 1635 1591 1579 1543 1476 1393 1309 1110 927 854 899 878 951 1116 1084 1106 1618 1935 2010 2008 1962 1884 1870 1909 1895 1895 1976 2046 2021 1965 1867 1786 1902 1961 1951 1891 1842 1991 2040 2048 2026 1946 1861 1737 1574 1420 1288 1129 1053 1236 1267 1321 1415 1433 1712 2044 2093 2072 2084 2173 2336 2418 2424 2447 2580 2829 3018 3050 2853 1967 1388 1376 1552 1678
1725 1901 2046 2145 1794 1366 1435 1954 2049 1814 1701 1846 1872 1685 1521 1428 1336 1199 1091 967 872 778 869 846 804 939 900 628 1095 1623 1934 2011 2006 1965 1831 1736 1716 1741 1832 1840 1822 1792 1741 1681 1776 1897 1940 1919 1848 1808 1868 1916 1863 1806 1722 1589 1407 1313 1277 1160 1046 1172 1360 1518 1578 1618 1618 1601 1766 1838 1919 2129 2321 2512 2664 2707 2795 2667 2293 1767 1478 1496 1630 1746 1838
1633 1636 1702 1855 1919 1852 1700 1626 1702 1820 1806 1628 1927 2091 1906 1561 1332 1106 1012 933 839 747 747 795 782 720 653 638 672 816 1269 1717 1870 1842 1790 1702 1604 1497 1502 1722 1797 1824 1809 1762 1724 1719 1724 1786 1849 1839 1794 2263 1863 1658 1484 1444 1311 1214 1141 1055 1033 1127 1225 1190 1051 969 932 1032 1221 1456 1778 2003 2083 2040 1936 1826 1740 1620 1599 1722 1788 1704 1679 1616 1463
1848 1833 1675 1712 1610 1508 1319 1431 1592 1623 1696 1790 1704 1613 1748 1770 1598 1243 848 671 523 586 757 747 696 648 560 687 730 752 785 1002 1484 1567 1562 1582 1558 1487 1413 1404 1523 1645 1722 1759 1775 1737 1676 1627 1563 2090 2349 2891 2711 1817 1334 1281 1453 1055 839 696 353 582 702 736 755 776 803 880 1033 1231 1420 1572 1682 1725 1701 1726 1747 1860 1899 1903 1880 1740 1561 1719 1516
1370 1271 1398 1624 1836 1560 1472 1325 1208 1346 1373 1332 1385 1508 1486 1364 1456 1510 1362 928 793 672 1634 1787 1318 762 690 507 797 936 918 923 1019 1234 1451 1492 1444 1437 1475 1542 1598 1621 1621 1637 1657 1639 1717 1757 1753 1984 2391 2924 2891 2789 2113 1604 1260 1037 934 1073 891 364 249 407 623 744 890 1066 1204 1382 1569 1654 1696 1743 1791 1768 1830 1856 1868 1851 1731 1673 1829 1844 1347
1277 1396 1433 1363 1266 1277 1391 1639 1531 1604 1764 1577 1499 1511 1480 1420 1243 1320 1144 1179 1260 1656 1551 1495 1523 1702 1166 734 598 773 925 934 954 985 1115 1286 1380 1461 1448 1473 1504 1563 1608 1618 1610 1610 1603 1580 1578 1595 1618 1613 1531 1396 1459 1521 1556 1493 1304 1058 863 768 791 507 342 292 543 812 978 1250 1474 1570 1573 1604 1632 1639 1566 1546 1616 1685 1784 1842 1699 1279 1010
1185 1245 1398 1458 1264 1196 1261 1328 1374 1450 1516 1522 1781 1951 1745 1559 1510 1414 1492 1542 1710 1694 1680 1765 1797 1725 1766 1365 918 579 756 874 924 957 967 985 1098 1249 1415 1504 1512 1477 1470 1465 1437 1409 1384 1359 1347 1359 1411 1739 2034 1213 1092 965 824 275 676 867 870 749 267 0 70 438 285 475 704 803 1015 1190 1308 1377 1515 1579 1614 1702 1713 1678 1582 1463 1434 1527 1657
961 920 1027 1415 1492 1379 1313 1356 1434 1429 1460 1508 1590 1592 1798 1978 2122 2183 2030 1877 1733 1666 1844 1852 1746 1674 1624 1755 1669 1360 844 506 801 915 936 952 972 1022 1143 1294 1378 1438 1463 1451 1401 1346 1263 1141 1022 954 943 946 901 841 767 704 634 345 158 165 133 379 375 31 0 0 182 524 703 740 778 1074 1131 1004 1246 1630 1688 1472 1223 1145 1288 1486 1613 1668 1687
733 816 858 956 1177 1393 1458 1386 1358 1377 1404 1413 1422 1442 1461 1850 1962 2106 2229 2206 1993 1823 1686 1759 1814 1813 1660 1625 1710 1665 1646 1484 1187 885 891 948 993 1053 1123 1164 1181 1247 1341 1362 1375 1329 1224 1114 963 664 418 341 284 357 176 102 58 28 22 50 99 93 65 62 78 84 102 124 256 589 638 632 642 722 773 741 759 796 1242 1518 1518 1528 1389 1415 1363
595 755 821 805 775 933 1114 1284 1295 1282 1283 1228 1184 1168 1159 1441 1585 1782 2277 2238 2105 1932 1990 1994 1964 1962 1883 1749 1628 1608 1628 1591 1537 1506 1528 1504 1440 1312 1155 958 879 990 1039 1049 1250 1268 1266 1212 1076 702 649 605 575 571 582 590 554 449 353 318 149 82 169 235 90 64 153 95 68 100 154 208 162 136 300 688 988 1374 1829 2018 2087 2022 1926 1760 1380
488 505 604 691 734 730 753 788 908 1148 1200 1149 1085 1077 1084 1045 1312 1682 1860 2113 2160 2044 1944 1968 2056 1928 1912 1852 1807 1744 1688 1558 1495 1516 1508 1552 1568 1585 1606 1622 1605 1553 1458 1235 1176 1153 1094 1057 1028 971 934 738 683 664 643 600 606 600 618 628 624 634 644 562 209 0 174 170 0 0 0 0 494 782 1026 1369 1655 1957 2274 2457 2420 2320 2270 2083 1845
482 455 448 494 532 590 669 713 688 707 948 1051 1021 974 924 882 846 1305 1498 1692 1941 2050 1955 1923 1929 2002 2015 1984 1909 1862 1864 1789 1707 1558 1477 1529 1548 1536 1535 1535 1562 1595 1658 1648 1615 1575 1474 1304 1393 1010 828 689 635 646 710 667 652 624 632 642 660 643 640 650 669 741 1078 1240 1334 1378 1392 1439 1495 1769 1941 2014 2167 2374 2596 2529 2413 2302 2247 2143 1840
241 274 293 345 396 446 474 571 642 668 678 812 826 840 848 829 790 1178 1411 1642 1773 1840 2029 2046 2000 1959 1952 1952 1955 1941 1908 1806 1686 1604 1605 1658 1651 1570 1492 1494 1504 1548 1605 1631 1600 1642 1689 1638 1468 1294 1088 969 862 770 712 704 693 697 696 660 674 684 688 691 730 734 793 1023 1357 1614 1800 1925 2012 2026 2076 2135 2233 2421 2543 2531 2452 2361 2079 1895 1851
127 156 174 197 210 199 178 228 289 350 433 587 568 521 582 688 770 1028 1187 1410 1656 1819 1825 1865 1923 1922 1832 1788 1846 1945 1872 1753 1609 1559 1545 1535 1458 1405 1439 1448 1456 1461 1487 1488 1419 1431 1463 1505 1386 1133 967 917 938 977 928 815 785 696 695 695 720 828 835 809 687 772 837 877 912 949 1031 1215 1300 1361 1443 1576 1747 1969 2129 2087 1864 1738 1691 1548 1498
32 32 45 58 52 42 67 233 284 281 274 301 330 434 542 604 615 588 622 684 1083 1532 1714 1673 1614 1480 1344 1359 1394 1403 1614 1833 1820 1734 1628 1513 1450 1357 1454 1472 1528 1580 1541 1435 1351 1338 1283 1285 1308 1281 1182 1034 918 939 956 997 1088 1199 1159 1056 914 777 766 774 982 1886 1254 1119 1189 1243 1278 1286 1306 1343 1345 1443 1614 1612 1713 1781 1866 1911 1804 1654 1491
0 0 0 0 0 0 0 0 0 129 205 217 276 303 300 308 339 426 478 530 627 1060 1402 1505 1458 1310 1387 1142 1261 1338 1453 1624 1324 1414 1390 1482 1451 1420 1441 1486 1505 1515 1512 1514 1478 1427 1488 1556 1611 1667 1648 1533 1288 981 896 955 982 913 1106 1135 1144 1151 1176 1250 1496 1654 1675 1667 1669 1672 1630 1595 1604 1631 1724 1846 2001 2240 2492 2570 2569 2414 2281 2208 2095
0 0 0 0 0 0 0 0 0 0 0 23 28 34 48 124 218 295 346 398 425 534 971 1203 1330 1140 1239 932 974 1087 1170 1318 1450 1646 1760 1660 1539 1498 1514 1597 1602 1605 1574 1595 1642 1683 1663 1651 1686 1718 1689 1567 1383 1227 1101 1014 991 1011 1149 1297 1482 1629 1672 1689 1786 1900 1962 2016 2012 1959 1896 1855 1842 1875 1919 1980 2103 2145 2108 2039 1966 1886 1821 1806 1808
0 0 0 0 0 0 0 0 0 0 0 0 0 0 0 0 0 0 0 260 244 439 724 1313 1428 1532 1308 1093 839 877 940 1240 1453 1564 1649 1703 1614 1466 1507 1524 1565 1593 1576 1536 1456 1396 1408 1410 1439 1497 1580 1667 1684 1557 1427 1317 1279 1230 1057 754 1194 1597 1839 1899 2047 2156 2264 2309 2364 2318 2197 2115 2066 2038 2000 1983 2006 2032 2039 2018 1926 1770 1793 1861 1884
0 0 0 0 0 0 0 0 0 0 0 0 0 0 0 0 0 0 38 305 353 430 402 1100 908 1055 621 586 661 692 752 777 1124 1649 1699 1617 1378 1246 1382 1436 1466 1489 1518 1493 1420 1396 1384 1363 1329 1314 1312 1307 1318 1312 1389 1473 1436 1301 1161 1032 1099 1384 1834 2116 2274 2446 2482 2543 2546 2443 2249 2154 2139 2135 2122 2134 2184 2224 2223 2227 2176 2130 2021 1906 1797
0 0 0 0 0 0 0 0 0 0 0 0 0 0 0 0 0 0 0 0 122 186 175 258 114 69 225 372 466 551 590 584 561 674 1211 1383 1255 1121 992 1074 1252 1330 1355 1370 1364 1362 1374 1395 1366 1343 1307 1328 1376 1433 1444 1330 1259 1263 1232 1492 1740 1842 2078 2302 2421 2469 2441 2400 2304 2222 2183 2159 2126 2141 2160 2198 2236 2276 2270 2260 2239 2185 2122 2060 1995
0 0 0 0 0 0 0 0 0 0 0 0 0 0 0 0 0 0 0 0 0 0 0 0 0 0 0 0 0 48 290 344 359 370 408 442 550 730 631 446 492 605 657 823 996 1146 1302 1329 1319 1355 1358 1319 1297 1309 1472 1614 1559 1364 1207 1193 1538 1901 2048 2083 2079 2061 2086 2055 2040 1999 1938 1808 1670 1587 1742 1867 1924 1958 1979 2034 2058 2078 2045 1992 1923
0 0 0 0 0 0 0 0 0 0 0 0 0 0 0 0 0 0 0 0 0 0 0 0 0 0 0 0 0 0 0 0 0 125 225 207 226 235 220 79 0 0 0 0 258 363 696 793 961 1098 1198 1259 1256 1279 1361 1523 1738 1815 1655 1424 1222 1146 1311 1479 1564 1556 1570 1583 1584 1528 1517 1506 1511 1566 1588 1643 1825 1964 1988 1939 1857 1842 1841 1814 1760
0 0 0 0 0 0 0 0 0 0 0 0 0 0 0 0 0 0 0 0 0 0 0 0 0 0 0 0 0 0 0 0 0 0 0 0 0 0 0 0 0 0 0 0 0 0 0 15 18 587 880 1090 1197 1193 1198 1298 1499 1732 1892 1949 1958 1947 1957 1948 1888 1923 1859 1788 1855 1803 1784 1746 1741 1720 1714 1720 1748 1777 1821 1804 1743 1700 1661 1616 1573
0 0 0 0 0 0 0 0 0 0 0 0 0 0 0 0 0 0 0 0 0 0 0 0 0 0 0 0 0 0 0 0 0 0 0 0 0 0 0 0 0 0 0 0 0 0 0 0 0 130 435 734 890 893 868 869 953 1170 1396 1526 1618 1751 1793 1804 1535 1355 1138 1114 1295 1694 1842 1887 1880 1844 1843 1839 1836 1773 1675 1613 1601 1585 1601 1649 1687
0 0 0 0 0 0 0 0 0 0 0 0 0 0 0 0 0 0 0 0 0 0 0 0 0 0 0 0 0 0 0 0 0 0 0 0 0 0 0 0 0 0 0 0 0 0 0 0 0 0 0 1 447 450 413 540 755 916 1067 1264 1454 1611 1618 1584 1453 1596 1688 1565 1488 1493 1674 1920 1954 1917 1918 1914 1926 1969 1975 1972 1971 2012 2036 2078 2070
0 0 0 0 0 0 0 0 0 0 0 0 0 0 0 0 0 0 0 0 0 0 0 0 0 0 0 0 0 0 0 0 0 0 0 0 0 0 0 0 0 0 0 0 0 0 159 265 429 568 583 635 699 700 664 586 486 683 954 1220 1513 1591 1680 1644 1534 1398 1394 1423 1464 1531 1649 1728 1838 1910 1919 1926 1958 1991 2006 1963 1912 1908 1935 1973 2034
0 0 0 0 0 0 1 0 0 0 0 0 0 0 0 0 0 0 0 0 0 0 0 0 0 0 0 0 0 0 0 0 0 0 0 0 0 0 0 0 0 0 0 119 195 273 308 345 373 430 547 625 694 737 765 849 928 964 791 968 1158 1163 1247 1287 1251 1214 1143 1144 1219 1333 1384 1388 1384 1429 1474 1531 1764 1902 1812 1720 1674 1749 1790 1849 1871
0 0 4 6 4 1 0 0 0 0 0 0 0 0 0 0 0 0 0 0 0 0 0 0 0 0 0 0 0 0 0 0 0 0 0 0 0 0 0 0 1 6 0 4 1 40 32 57 117 304 472 523 558 535 568 564 664 862 1135 1318 1349 1268 1307 1373 1397 1368 1243 1279 1328 1381 1425 1419 1399 1322 1299 1415 1506 1532 1531 1581 1661 1780 1797 1787 1772
0 0 0 1 2 0 0 0 0 0 0 0 0 0 0 0 0 0 0 0 0 0 0 0 0 0 0 0 0 0 0 0 0 0 0 0 0 0 0 0 2 0 0 0 0 0 2 43 94 86 142 257 106 320 398 531 623 722 866 1028 1169 1224 1342 1423 1419 1396 1286 1270 1336 1411 1527 1564 1558 1560 1514 1445 1352 1323 1380 1482 1639 1698 1648 1723 1727
0 0 0 0 0 0 0 0 0 0 0 0 0 0 0 0 0 0 0 0 0 0 0 0 0 0 0 0 0 0 0 0 0 0 0 0 0 0 2 3 2 0 0 0 2 14 27 25 16 12 7 5 173 382 467 520 636 767 851 947 1163 1207 1212 1262 1325 1351 1342 1365 1473 1543 1594 1571 1566 1540 1530 1538 1507 1426 1402 1408 1459 1582 1724 1791 1776
0 0 1 1 12 6 0 0 0 0 0 0 0 0 0 0 0 0 0 0 0 0 0 0 0 0 0 0 0 0 0 0 0 0 9 12 11 12 15 15 11 3 0 1 4 1 0 2 3 4 3 4 4 7 261 555 699 738 803 879 1000 997 976 1066 1199 1280 1293 1378 1539 1590 1662 1601 1518 1485 1463 1493 1559 1598 1660 1687 1694 1696 1712 1771 1796
0 1 0 4 6 7 0 0 0 1 0 0 0 0 0 0 0 0 0 0 0 0 0 0 0 1 0 0 6 6 1 9 10 0 0 0 2 3 4 3 1 1 0 0 0 0 0 0 0 1 2 4 2 2 6 10 16 41 608 762 874 973 931 942 900 821 975 1436 1434 1352 1362 1487 1574 1751 1855 1961 2070 2153 2146 2143 2095 2077 2075 2068 2057
0 0 0 0 0 0 0 5 5 6 3 3 0 8 17 16 9 3 1 0 0 0 0 0 0 0 0 0 0 2 4 3 6 3 0 0 0 0 0 0 0 0 0 0 0 0 0 0 0 0 0 0 3 4 6 8 9 10 12 15 20 663 693 713 781 747 729 988 1078 1148 1380 1454 1530 1673 1811 1906 1986 2031 2006 2016 2054 2086 2119 2152 2130
0 1 1 2 0 0 3 4 8 6 7 12 13 14 8 1 0 0 0 0 0 0 0 0 0 2 4 5 6 10 12 16 22 22 18 8 0 0 0 0 0 0 0 0 0 0 0 0 0 0 0 0 1 3 4 5 5 6 8 11 15 127 423 514 676 641 574 445 508 774 941 814 654 735 746 872 1186 1464 1658 1809 1887 1936 1966 1959 1948
6 12 11 9 6 8 10 10 9 7 14 19 15 10 7 11 9 9 4 3 1 0 0 0 0 0 2 6 15 26 31 26 20 14 8 2 0 0 0 0 0 0 0 0 0 0 0 0 0 0 0 0 0 2 3 3 5 6 5 6 9 10 7 1 0 226 545 549 559 581 691 825 773 600 659 825 969 1129 1284 1453 1560 1628 1760 1831 1840
6 6 7 9 13 10 7 8 9 11 6 12 8 9 13 16 18 19 18 15 9 4 0 0 0 0 0 0 0 14 18 18 15 12 6 1 0 0 0 0 0 0 0 0 0 0 0 0 0 0 0 0 0 1 2 2 3 3 2 3 3 3 2 2 0 0 0 0 0 0 0 100 144 173 528 819 855 742 723 946 1142 1338 1356 1466 1495
7 7 5 8 8 7 8 7 6 7 8 8 9 8 9 15 18 25 26 25 18 13 6 1 0 0 0 0 0 0 9 14 16 12 8 5 1 0 0 0 0 0 0 0 0 0 0 0 0 0 0 0 0 0 0 1 2 2 3 5 5 4 3 1 0 0 0 0 0 0 0 0 0 0 0 0 106 146 257 345 439 532 692 745 889
6 6 7 8 7 6 7 5 5 7 7 9 10 10 8 11 13 17 23 24 21 19 14 9 4 1 0 0 4 15 18 15 14 13 7 1 0 0 0 0 0 0 0 0 0 0 0 0 0 0 0 0 0 0 0 0 0 1 1 1 2 3 2 1 0 0 0 0 0 0 0 0 0 0 0 0 116 229 294 354 362 377 408 452 502
3 5 6 4 5 5 5 6 5 5 9 10 8 7 8 7 9 13 15 18 23 24 19 16 13 10 5 0 8 12 8 5 4 2 0 0 0 0 0 0 0 0 0 0 0 0 0 0 0 0 0 0 0 0 0 0 0 1 0 0 1 2 2 1 1 0 0 1 0 0 0 0 0 0 0 1 2 38 47 303 324 344 354 377 414
5 4 5 6 7 9 8 4 8 10 8 8 7 5 11 15 17 22 24 27 34 42 42 34 28 21 15 11 13 19 17 11 6 2 1 0 0 0 0 0 0 0 0 0 0 0 0 0 0 0 0 0 0 0 0 0 2 2 2 2 1 1 1 2 2 1 1 1 1 1 0 0 0 1 2 2 2 3 2 2 3 3 4 2 166
0 2 6 7 6 8 12 10 8 6 10 11 12 15 16 18 19 29 30 34 30 35 35 31 26 17 11 10 15 23 25 25 17 8 3 1 0 0 0 0 0 0 0 0 0 0 0 0 0 0 0 0 0 0 0 0 1 4 5 3 3 3 2 3 4 2 1 2 2 1 0 0 1 1 2 2 1 1 2 2 1 4 6 6 6
4 5 7 11 8 8 7 12 11 15 12 12 12 12 15 21 25 25 30 34 38 39 38 35 31 28 27 26 28 27 21 16 13 10 8 6 4 1 0 0 0 0 0 0 0 0 0 0 0 0 0 0 0 0 0 0 1 3 4 6 6 4 5 6 3 3 4 2 2 0 0 0 0 1 1 1 1 2 2 2 3 4 3 4 5
4 6 7 7 9 9 8 9 14 13 13 10 14 12 15 17 20 23 30 41 43 40 34 34 31 25 24 22 17 15 12 11 12 11 11 12 9 5 1 0 0 0 0 0 0 0 0 0 0 0 0 0 0 0 0 0 1 5 5 2 2 2 2 2 2 2 2 0 0 0 1 1 1 1 1 1 1 2 2 1 1 1 1 3 3
5 8 7 9 9 8 11 13 11 15 18 22 18 15 23 29 27 36 35 39 39 34 17 13 12 5 3 8 15 17 14 10 11 13 12 10 7 4 0 0 0 0 0 0 0 0 0 0 0 0 0 0 0 0 0 0 2 2 1 2 3 3 3 3 2 1 0 0 0 0 0 0 0 1 2 2 2 2 1 1 1 1 2 2 1
0 1 1 3 8 8 7 10 12 17 18 19 22 28 32 31 33 36 37 31 28 27 22 11 5 5 4 4 7 9 7 6 5 6 7 6 3 1 0 0 0 0 0 0 0 0 0 0 0 0 0 0 0 0 0 1 2 3 2 1 5 7 8 8 6 3 1 0 0 0 0 1 1 1 1 2 1 0 0 0 0 0 0 0 0
Wind_Speed
14 15 16 14 14 12 12 11 10 11 12 11 10 9 9 9 8 8 9 8 8 7 7 7 6 5 4 4 2 1 1 2 3 2 0 1 2 1 1 1 2 4 3 5 4 4 5 5 5 5 5 6 7 8 9 8 8 7 6 7 5 6 7 8 7 6 8 7 6 5 4 6 5 7 5 4 4 5 6 7 6 7 7 8 8
18 20 21 19 17 16 15 13 11 10 10 11 10 9 9 9 9 10 9 9 10 8 7 7 8 7 6 4 3 2 1 2 3 3 2 2 3 2 2 2 2 4 4 5 5 4 3 4 5 5 5 5 6 8 8 8 7 7 7 6 6 4 6 7 6 8 7 10 9 7 6 8 6 7 7 5 4 5 4 4 5 7 8 8 9
16 22 28 32 31 23 17 15 12 10 9 9 9 9 9 9 9 8 8 9 10 9 9 8 8 9 8 7 6 4 2 0 2 2 2 2 2 3 3 2 3 3 4 5 5 5 5 4 4 6 7 7 8 8 9 9 8 7 6 6 5 5 6 6 7 6 5 6 8 8 8 9 9 5 5 6 6 6 5 4 5 6 9 10 11
27 29 26 25 24 25 22 18 13 10 10 10 10 10 9 8 9 7 6 7 7 8 9 9 10 10 9 8 6 5 4 2 1 1 1 1 1 2 3 3 3 4 4 4 5 5 4 5 4 5 7 8 8 9 10 10 9 8 7 6 5 5 4 6 5 4 6 5 7 6 6 7 5 4 4 4 4 3 5 5 6 8 9 11 14
28 27 24 19 16 16 17 20 20 18 15 13 12 13 11 9 8 6 5 5 6 6 7 9 10 11 10 8 7 6 5 4 2 0 1 1 0 1 2 3 3 4 4 4 4 4 4 4 4 5 7 7 8 9 10 11 9 9 7 6 5 5 6 5 3 4 4 3 4 5 6 6 5 3 4 4 4 6 7 8 9 10 11 12 14
26 25 22 15 14 17 17 17 19 21 21 20 18 18 17 14 12 11 8 5 5 5 6 7 9 9 9 8 7 6 5 4 3 2 1 1 1 1 2 2 2 3 4 5 5 6 5 5 5 5 5 5 6 7 9 9 11 10 10 9 7 7 7 7 6 5 5 3 4 7 7 5 7 6 6 8 7 8 8 9 12 13 14 11 10
29 28 24 18 18 24 20 16 16 17 20 23 23 21 19 18 18 17 16 13 10 7 6 6 7 8 8 8 7 5 4 4 4 3 3 3 2 2 2 2 3 4 5 4 6 6 6 7 7 6 5 5 5 5 6 8 9 10 10 11 11 11 10 9 9 8 7 7 8 7 7 8 9 7 8 13 12 13 12 10 10 9 10 12 9
34 33 28 23 21 22 19 17 18 18 20 23 23 22 21 20 18 17 18 18 15 12 9 6 6 8 8 9 8 8 7 6 6 6 5 5 5 4 3 3 3 4 5 6 6 7 7 7 7 7 7 6 6 6 7 6 8 9 9 11 12 12 10 10 11 10 10 10 10 9 11 11 13 12 13 15 13 11 12 12 7 6 5 10 13
32 28 21 20 20 20 21 22 23 22 24 24 24 22 21 21 20 19 18 18 18 18 16 12 9 8 8 8 8 9 9 8 8 8 7 6 7 6 6 5 5 6 6 7 8 8 9 9 9 9 8 6 4 5 6 7 8 7 8 10 11 11 12 13 12 12 12 12 11 12 13 13 12 12 11 10 7 6 6 10 8 6 8 9 9
31 31 27 24 24 25 27 28 26 24 23 23 22 21 20 21 21 21 21 21 21 21 21 18 14 11 10 9 9 9 9 9 7 7 7 8 8 8 9 8 8 8 8 8 9 10 9 10 10 6 5 5 5 5 5 4 5 8 8 10 10 11 11 11 12 12 12 12 12 12 12 12 11 9 9 8 6 8 7 6 6 5 9 10 13
29 32 33 33 31 30 30 30 28 26 26 28 26 24 24 25 26 25 24 24 23 22 21 21 19 15 13 11 10 9 9 9 5 6 6 6 8 10 10 10 11 10 10 10 10 10 11 11 12 10 9 9 9 7 6 5 5 5 4 5 8 11 12 11 11 11 12 12 12 13 13 10 9 8 7 6 7 6 6 7 7 9 10 12 12
24 26 31 34 35 34 32 31 29 30 31 30 27 26 28 29 30 30 28 26 24 22 21 21 21 20 16 13 12 11 11 8 5 6 5 5 7 10 12 12 12 11 11 11 11 12 11 11 13 13 13 12 12 13 11 9 8 7 7 7 5 5 8 11 12 13 15 13 12 11 13 11 9 10 8 9 6 8 8 9 9 9 10 12 14
22 22 24 29 33 33 32 32 31 31 32 32 30 29 32 34 34 32 30 28 26 23 22 22 22 22 22 21 18 15 14 10 8 7 7 6 6 8 13 13 12 11 11 11 12 13 14 14 14 15 15 10 12 14 14 14 12 9 9 9 9 9 8 nan nan 12 15 15 13 11 12 12 10 9 11 11 11 11 11 11 12 12 12 13 14
21 19 18 20 25 29 31 31 30 29 29 30 31 33 33 34 32 30 29 30 27 24 23 23 23 24 23 24 25 25 23 23 19 16 15 13 10 11 12 12 12 11 12 12 13 13 14 14 14 15 16 17 17 17 18 17 17 17 17 17 16 13 10 nan nan nan 11 13 13 11 11 16 9 10 10 13 12 10 11 10 13 14 14 14 17
26 22 19 17 19 23 27 30 31 32 31 31 31 34 35 34 32 29 29 29 28 26 24 21 22 24 25 26 27 27 27 32 32 29 25 21 18 19 17 18 18 16 15 15 14 14 14 15 15 14 15 17 19 18 18 17 nan nan nan nan nan nan nan nan nan nan 16 15 12 10 10 12 11 9 11 14 13 11 12 12 15 17 17 20 19
29 28 26 23 21 20 20 23 27 31 33 32 32 32 32 32 31 30 29 28 27 27 26 23 23 26 27 27 27 25 25 29 31 31 31 31 27 24 21 17 15 15 15 17 18 17 17 16 16 15 15 16 16 15 17 19 20 18 17 16 16 nan 16 15 nan nan 16 nan nan 12 12 11 10 10 12 13 14 15 18 20 20 20 21 20 18
31 32 32 30 27 23 22 21 20 21 24 27 30 31 30 29 28 28 28 28 26 26 26 25 25 26 28 28 27 26 25 26 31 32 32 32 30 27 25 22 20 18 16 16 18 19 20 19 18 16 15 16 14 15 16 19 21 20 20 18 17 17 16 18 17 nan 11 10 nan nan nan nan 8 8 9 9 12 18 23 21 18 22 23 21 21
32 33 34 34 32 29 25 23 23 22 20 18 20 25 27 27 26 26 26 26 26 25 25 25 25 26 27 28 28 28 28 30 31 28 28 27 28 28 27 25 22 20 19 19 20 20 19 15 16 18 15 15 14 15 16 21 21 20 21 20 19 18 18 21 23 21 18 14 11 8 7 8 9 9 10 11 11 21 25 18 19 28 24 24 22
35 35 35 34 33 31 30 29 28 26 23 18 16 17 19 20 21 22 22 23 24 25 25 25 25 25 26 28 28 29 30 32 35 31 28 27 27 28 29 28 25 23 22 21 22 22 21 19 15 14 16 14 13 15 17 22 21 20 20 21 18 18 19 25 25 22 22 22 20 20 17 13 14 15 14 11 13 20 25 21 23 27 23 21 23
37 37 37 36 36 34 33 34 33 31 28 26 25 23 21 19 19 20 20 20 21 24 26 26 25 26 27 28 30 31 32 31 30 26 25 24 24 27 28 27 24 24 25 24 24 24 24 24 22 18 13 11 13 14 17 21 21 20 22 20 18 14 20 27 27 25 23 21 19 20 19 20 20 20 20 21 22 25 25 25 25 27 25 22 23
nan nan nan nan nan nan nan 37 35 33 32 31 31 31 31 28 25 23 21 21 20 20 22 24 25 26 28 28 27 25 25 25 25 25 24 24 23 26 24 23 22 23 25 27 27 27 28 28 29 24 19 16 15 16 19 21 21 21 21 19 17 16 20 25 24 24 24 23 21 20 20 21 21 22 22 23 24 26 28 27 26 27 26 23 22
nan nan nan nan nan nan nan nan nan 35 33 34 34 34 34 33 30 28 26 25 22 20 21 22 25 26 26 25 22 20 19 19 22 22 21 21 22 23 24 24 26 26 24 25 26 28 29 30 31 28 24 21 21 25 26 26 25 26 18 14 14 17 20 23 24 25 24 23 23 22 22 22 22 22 22 23 24 25 25 26 27 27 27 25 23
nan nan nan nan nan nan nan nan nan nan nan nan nan nan nan 34 33 31 30 29 27 26 26 26 29 29 27 24 22 22 22 22 20 21 20 20 19 20 19 21 23 24 22 21 25 28 31 32 32 32 34 33 32 29 29 28 29 25 20 18 18 17 22 24 24 25 25 23 23 22 22 23 23 23 24 24 25 26 25 26 26 29 29 27 26
nan nan nan nan nan nan nan nan nan nan nan nan nan nan nan nan nan nan nan 33 34 33 30 32 33 33 31 29 27 26 26 25 23 21 22 23 22 19 17 18 21 24 25 23 23 24 26 29 30 30 30 30 29 29 28 29 28 23 23 22 21 25 29 28 28 28 27 25 23 22 22 23 24 24 24 25 25 25 25 26 27 29 30 30 28
nan nan nan nan nan nan nan nan nan nan nan nan nan nan nan nan nan nan nan 42 41 41 39 38 39 36 35 33 31 30 30 30 29 29 28 27 24 21 19 19 20 26 27 24 23 23 22 20 22 23 24 25 24 24 25 23 22 24 24 25 29 34 32 31 30 32 30 26 25 24 24 24 25 25 27 27 26 27 28 28 30 31 31 30 29
nan nan nan nan nan nan nan nan nan nan nan nan nan nan nan nan nan nan nan nan 42 41 39 39 38 nan 35 33 32 31 32 33 33 33 32 31 29 25 24 26 27 29 26 23 19 17 17 17 17 19 22 24 27 28 26 25 24 24 24 28 34 36 36 35 34 34 31 29 28 27 26 28 28 28 28 30 29 27 29 29 29 29 32 31 27
nan nan nan nan nan nan nan nan nan nan nan nan nan nan nan nan nan nan nan nan nan nan nan nan nan nan nan nan nan nan 34 34 33 32 32 32 32 34 35 33 31 29 27 24 22 21 20 21 23 20 21 20 21 23 23 24 26 27 29 33 35 35 36 37 35 34 32 31 31 31 31 31 32 31 30 31 29 29 34 33 30 27 31 31 27
nan nan nan nan nan nan nan nan nan nan nan nan nan nan nan nan nan nan nan nan nan nan nan nan nan nan nan nan nan nan nan nan nan 32 32 33 33 34 35 nan nan nan nan nan 25 22 21 21 21 24 24 25 27 29 29 30 30 31 31 31 31 31 31 32 34 36 34 34 34 34 34 36 35 31 32 33 31 31 37 37 31 27 30 32 27
nan nan nan nan nan nan nan nan nan nan nan nan nan nan nan nan nan nan nan nan nan nan nan nan nan nan nan nan nan nan nan nan nan nan nan nan nan nan nan nan nan nan nan nan nan nan nan nan nan 26 27 25 26 26 27 29 31 33 31 31 31 32 34 38 38 36 36 38 36 34 33 36 34 32 33 33 32 32 37 36 33 30 30 32 24
nan nan nan nan nan nan nan nan nan nan nan nan nan nan nan nan nan nan nan nan nan nan nan nan nan nan nan nan nan nan nan nan nan nan nan nan nan nan nan nan nan nan nan nan nan nan nan nan nan 26 25 24 23 25 26 27 27 28 29 29 29 32 35 41 43 38 34 33 32 32 33 35 34 32 34 36 34 34 36 37 32 33 29 26 24
nan nan nan nan nan nan nan nan nan nan nan nan nan nan nan nan nan nan nan nan nan nan nan nan nan nan nan nan nan nan nan nan nan nan nan nan nan nan nan nan nan nan nan nan nan nan nan nan nan nan nan nan 22 23 25 25 25 24 25 27 29 34 44 43 33 32 32 32 31 32 33 34 31 31 34 37 36 34 36 37 34 31 28 25 23
nan nan nan nan nan nan nan nan nan nan nan nan nan nan nan nan nan nan nan nan nan nan nan nan nan nan nan nan nan nan nan nan nan nan nan nan nan nan nan nan nan nan nan nan nan nan 34 33 32 31 28 26 24 23 24 24 25 25 26 27 29 40 40 32 29 31 32 32 34 35 34 32 29 28 31 34 35 33 34 33 32 29 27 25 23
nan nan nan nan nan nan nan nan nan nan nan nan nan nan nan nan nan nan nan nan nan nan nan nan nan nan nan nan nan nan nan nan nan nan nan nan nan nan nan nan nan nan nan 39 36 34 35 34 33 32 32 30 29 29 28 27 27 27 27 28 29 34 31 26 28 29 29 31 36 36 36 34 32 28 27 29 32 32 32 31 29 28 27 25 23
nan nan nan nan nan nan nan nan nan nan nan nan nan nan nan nan nan nan nan nan nan nan nan nan nan nan nan nan nan nan nan nan nan nan nan nan nan nan nan nan nan nan nan nan nan nan nan nan 34 34 34 34 34 34 33 32 31 30 30 30 30 31 26 25 30 29 29 34 38 36 35 35 34 29 25 27 30 31 30 28 28 28 27 26 24
nan nan nan nan nan nan nan nan nan nan nan nan nan nan nan nan nan nan nan nan nan nan nan nan nan nan nan nan nan nan nan nan nan nan nan nan nan nan nan nan nan nan nan nan nan nan nan nan nan nan 38 39 39 39 38 38 36 34 33 32 31 32 27 26 28 29 29 35 37 36 36 35 33 31 28 27 29 30 29 28 29 30 27 27 27
nan nan nan nan nan nan nan nan nan nan nan nan nan nan nan nan nan nan nan nan nan nan nan nan nan nan nan nan nan nan nan nan nan nan nan nan nan nan nan nan nan nan nan nan nan nan nan nan nan nan nan nan 43 43 43 43 43 42 41 39 37 32 28 27 27 28 33 35 35 35 37 36 34 33 33 30 28 28 29 29 29 29 29 29 29
nan nan nan nan nan nan nan nan nan nan nan nan nan nan nan nan nan nan nan nan nan nan nan nan nan nan nan nan nan nan nan nan nan nan nan nan nan nan nan nan nan nan nan nan nan nan nan nan nan nan nan nan nan nan 43 43 44 43 41 38 36 33 30 29 27 28 33 33 34 36 36 36 37 36 34 30 29 30 30 30 29 29 30 30 32
nan nan nan nan nan nan nan nan nan nan nan nan nan nan nan nan nan nan nan nan nan nan nan nan nan nan nan nan nan nan nan nan nan nan nan nan nan nan nan nan nan nan nan nan nan nan nan nan nan nan nan nan nan nan nan nan nan nan 42 39 36 33 28 28 26 29 32 34 34 35 36 37 38 37 36 32 29 30 32 33 32 31 32 33 35
nan nan nan nan nan nan nan nan nan nan nan nan nan nan nan nan nan nan nan nan nan nan nan nan nan nan nan nan nan nan nan nan nan nan nan nan nan nan nan nan nan nan nan nan nan nan nan nan nan nan nan nan nan nan nan nan nan nan nan nan nan 36 34 34 32 31 32 33 33 34 35 36 38 38 36 33 32 32 32 32 33 33 33 34 36
nan nan nan nan nan nan nan nan nan nan nan nan nan nan nan nan nan nan nan nan nan nan nan nan nan nan nan nan nan nan nan nan nan nan nan nan nan nan nan nan nan nan nan nan nan nan nan nan nan nan nan nan nan nan nan nan nan nan nan nan nan 38 36 35 33 32 32 33 34 35 35 36 37 38 37 35 35 35 35 34 34 34 35 35 35
nan nan nan nan nan nan nan nan nan nan nan nan nan nan nan nan nan nan nan nan nan nan nan nan nan nan nan nan nan nan nan nan nan nan nan nan nan nan nan nan nan nan nan nan nan nan nan nan nan nan nan nan nan nan nan nan nan nan nan nan nan nan nan nan nan 33 35 36 37 38 37 36 36 37 35 36 38 38 37 38 37 36 36 36 37
nan nan nan nan nan nan nan nan nan nan nan nan nan nan nan nan nan nan nan nan nan nan nan nan nan nan nan nan nan nan nan nan nan nan nan nan nan nan nan nan nan nan nan nan nan nan nan nan nan nan nan nan nan nan nan nan nan nan nan nan nan nan nan nan nan nan nan nan nan nan nan 38 37 36 35 37 38 39 38 38 38 37 38 38 39
nan nan nan nan nan nan nan nan nan nan nan nan nan nan nan nan nan nan nan nan nan nan nan nan nan nan nan nan nan nan nan nan nan nan nan nan nan nan nan nan nan nan nan nan nan nan nan nan nan nan nan nan nan nan nan nan nan nan nan nan nan nan nan nan nan nan nan nan nan nan nan nan nan nan nan nan 40 40 40 39 39 39 39 39 39
nan nan nan nan nan nan nan nan nan nan nan nan nan nan nan nan nan nan nan nan nan nan nan nan nan nan nan nan nan nan nan nan nan nan nan nan nan nan nan nan nan nan nan nan nan nan nan nan nan nan nan nan nan nan nan nan nan nan nan nan nan nan nan nan nan nan nan nan nan nan nan nan nan nan nan nan 41 40 39 39 39 39 40 40 40
nan nan nan nan nan nan nan nan nan nan nan nan nan nan nan nan nan nan nan nan nan nan nan nan nan nan nan nan nan nan nan nan nan nan nan nan nan nan nan nan nan nan nan nan nan nan nan nan nan nan nan nan nan nan nan nan nan nan nan nan nan nan nan nan nan nan nan nan nan nan nan nan nan nan nan nan nan nan nan 41 41 42 41 41 41
nan nan nan nan nan nan nan nan nan nan nan nan nan nan nan nan nan nan nan nan nan nan nan nan nan nan nan nan nan nan nan nan nan nan nan nan nan nan nan nan nan nan nan nan nan nan nan nan nan nan nan nan nan nan nan nan nan nan nan nan nan nan nan nan nan nan nan nan nan nan nan nan nan nan nan nan nan nan nan nan nan nan nan nan 41
nan nan nan nan nan nan nan nan nan nan nan nan nan nan nan nan nan nan nan nan nan nan nan nan nan nan nan nan nan nan nan nan nan nan nan nan nan nan nan nan nan nan nan nan nan nan nan nan nan nan nan nan nan nan nan nan nan nan nan nan nan nan nan nan nan nan nan nan nan nan nan nan nan nan nan nan nan nan nan nan nan nan nan nan nan
nan nan nan nan nan nan nan nan nan nan nan nan nan nan nan nan nan nan nan nan nan nan nan nan nan nan nan nan nan nan nan nan nan nan nan nan nan nan nan nan nan nan nan nan nan nan nan nan nan nan nan nan nan nan nan nan nan nan nan nan nan nan nan nan nan nan nan nan nan nan nan nan nan nan nan nan nan nan nan nan nan nan nan nan nan
nan nan nan nan nan nan nan nan nan nan nan nan nan nan nan nan nan nan nan nan nan nan nan nan nan nan nan nan nan nan nan nan nan nan nan nan nan nan nan nan nan nan nan nan nan nan nan nan nan nan nan nan nan nan nan nan nan nan nan nan nan nan nan nan nan nan nan nan nan nan nan nan nan nan nan nan nan nan nan nan nan nan nan nan nan
nan nan nan nan nan nan nan nan nan nan nan nan nan nan nan nan nan nan nan nan nan nan nan nan nan nan nan nan nan nan nan nan nan nan nan nan nan nan nan nan nan nan nan nan nan nan nan nan nan nan nan nan nan nan nan nan nan nan nan nan nan nan nan nan nan nan nan nan nan nan nan nan nan nan nan nan nan nan nan nan nan nan nan nan nan
nan nan nan nan nan nan nan nan nan nan nan nan nan nan nan nan nan nan nan nan nan nan nan nan nan nan nan nan nan nan nan nan nan nan nan nan nan nan nan nan nan nan nan nan nan nan nan nan nan nan nan nan nan nan nan nan nan nan nan nan nan nan nan nan nan nan nan nan nan nan nan nan nan nan nan nan nan nan nan nan nan nan nan nan nan
Wind_Direction
230 222 219 213 217 228 234 237 240 240 238 235 234 229 223 217 214 215 224 226 226 226 226 234 243 242 236 224 223 217 134 113 123 136 170 87 90 85 106 106 116 121 135 139 157 171 182 183 173 175 187 184 186 191 198 194 194 190 201 223 227 238 247 249 239 200 210 250 271 284 271 271 267 290 276 282 277 289 301 321 327 332 338 336 335
227 222 218 215 213 214 220 229 235 240 243 239 236 237 234 228 223 218 222 226 234 240 242 238 245 257 264 261 249 258 225 134 132 160 167 157 133 132 125 154 147 132 140 134 137 157 184 185 182 184 197 188 189 191 194 194 202 198 199 209 210 212 253 254 245 246 219 223 223 241 257 273 271 282 279 274 270 281 282 302 324 333 343 341 334
250 245 235 223 209 204 213 220 227 234 248 244 239 239 238 238 233 234 230 227 231 239 244 248 256 262 266 273 272 268 280 213 162 165 163 168 138 136 144 172 175 155 145 128 132 152 172 193 187 197 210 206 194 193 194 189 196 205 193 210 204 203 239 259 255 242 230 221 245 244 260 263 282 276 270 293 307 312 313 327 335 330 332 334 330
228 228 233 240 236 220 211 214 217 231 241 241 240 233 233 237 246 250 251 246 247 243 252 259 265 274 277 280 287 288 293 293 243 173 135 145 139 133 144 160 184 182 170 157 147 151 153 173 181 206 210 207 202 199 196 197 190 191 195 198 211 187 202 240 254 259 245 226 226 255 248 259 259 279 287 279 287 292 313 319 319 327 330 323 319
241 245 243 240 244 245 230 220 226 222 221 234 238 235 226 218 230 248 257 258 263 266 261 266 276 285 294 298 302 311 318 311 317 29 152 212 76 132 155 172 180 187 192 188 179 174 165 166 173 206 217 211 204 205 204 202 197 195 192 196 206 197 202 220 215 236 216 185 196 225 240 245 264 253 272 262 253 275 290 303 311 312 310 313 313
249 253 249 237 230 237 236 234 227 227 228 226 234 238 233 230 224 217 214 226 247 257 275 270 274 283 290 301 307 313 310 308 316 333 357 263 242 201 198 196 189 202 209 214 212 213 203 190 191 207 214 216 201 207 214 212 213 211 206 199 208 220 215 203 208 208 220 192 207 194 222 226 232 251 261 273 275 274 276 288 290 298 302 297 309
238 238 238 230 223 228 227 223 235 235 232 233 228 230 232 227 223 223 219 212 204 217 245 265 269 275 277 275 279 280 278 268 260 252 242 243 253 245 215 201 204 215 219 223 227 228 223 214 210 216 217 222 218 212 212 215 223 221 223 222 217 216 204 198 213 224 231 220 219 241 230 241 267 253 256 270 278 293 296 279 274 281 287 303 308
242 232 221 218 219 230 231 229 229 227 232 235 233 229 227 226 223 220 217 216 216 208 208 233 256 267 273 272 268 261 260 255 246 239 234 240 247 242 237 221 211 212 215 225 230 231 234 232 228 230 230 228 233 225 233 216 224 219 221 232 230 232 229 230 230 231 229 231 238 226 246 247 245 265 264 262 265 271 293 296 290 278 275 290 311
248 249 244 237 232 230 230 231 229 229 232 239 241 239 235 228 223 218 215 213 213 213 210 206 217 238 249 261 268 267 266 262 257 256 250 243 242 240 239 232 226 217 215 218 226 230 231 232 233 233 239 245 262 250 248 250 240 231 220 238 238 242 239 238 236 233 233 239 233 243 244 241 249 252 251 259 274 295 260 267 275 289 295 289 304
240 241 240 236 232 226 225 227 231 234 237 240 239 237 239 239 234 225 218 214 212 213 213 212 214 219 229 236 245 256 260 255 266 309 294 266 257 250 243 237 231 229 225 221 219 226 228 231 230 236 238 237 240 253 254 253 253 248 234 240 242 243 242 240 237 242 246 244 248 250 247 251 254 261 266 267 264 254 242 247 256 262 264 282 297
239 238 236 232 229 226 225 225 227 228 226 228 229 227 226 228 229 227 224 221 218 215 217 216 218 224 230 233 236 237 241 245 284 296 300 309 265 253 254 247 243 238 235 234 230 229 230 233 233 225 218 215 216 210 224 228 225 222 215 227 248 253 244 242 241 247 250 253 252 255 260 255 255 257 258 246 246 251 257 259 262 260 271 274 282
241 240 237 234 231 228 227 229 227 224 224 227 230 228 228 227 225 224 223 220 218 218 217 220 222 223 224 230 236 234 234 241 271 275 282 284 263 248 246 247 248 247 245 246 244 242 239 240 242 243 241 239 236 231 225 221 224 219 213 217 222 245 260 256 248 244 250 251 250 256 258 261 257 255 242 249 233 237 250 259 264 274 273 278 288
240 243 239 233 231 229 228 229 227 226 224 224 225 230 231 228 226 225 223 221 220 216 215 219 224 226 224 224 224 228 229 237 253 261 259 256 258 246 236 243 244 246 250 250 251 250 249 247 246 249 249 257 251 244 240 232 227 230 229 220 219 233 241 nan nan 255 249 251 251 248 262 258 256 257 261 252 250 244 243 252 266 274 282 284 289
238 239 238 235 232 231 228 227 228 226 225 225 227 230 232 231 229 228 225 221 219 218 222 224 226 227 227 230 229 226 225 220 224 226 226 225 225 234 231 237 241 243 246 249 249 252 256 256 255 255 259 260 259 258 254 250 243 239 239 242 241 235 237 nan nan nan 262 255 252 249 250 261 255 253 256 255 247 244 246 251 264 266 270 280 280
246 243 243 241 234 229 227 227 228 228 226 227 227 227 228 229 229 228 226 222 219 220 223 227 232 233 232 234 235 233 235 238 243 248 254 255 248 241 226 219 221 227 234 240 242 245 250 254 257 258 261 267 270 274 269 264 nan nan nan nan nan nan nan nan nan nan 254 256 256 253 246 252 251 244 249 259 260 256 259 259 261 267 267 267 267
248 247 247 250 252 243 235 230 230 228 227 228 229 227 226 228 230 228 228 226 222 220 221 230 238 240 238 235 236 237 238 244 250 250 252 251 252 247 244 240 233 228 229 238 244 246 247 250 252 254 258 263 273 289 287 278 273 272 267 260 256 nan 256 262 nan nan 262 nan nan 254 253 258 261 254 256 260 259 256 252 253 258 261 260 261 267
248 248 249 247 248 251 245 240 240 238 232 228 229 232 233 233 232 230 228 227 226 226 227 231 235 237 236 235 233 237 243 247 248 251 251 258 258 254 252 250 244 241 238 241 246 249 252 254 256 258 260 265 272 283 289 289 281 286 286 283 278 273 270 269 282 nan 289 284 nan nan nan nan 255 254 249 246 256 256 251 247 253 261 262 263 266
245 247 247 249 252 250 248 249 249 247 241 235 231 231 234 236 235 234 232 229 226 227 228 230 233 236 237 236 238 240 244 257 263 257 261 264 263 261 260 259 255 251 246 247 249 250 255 263 265 263 264 266 276 286 294 289 286 291 291 291 290 290 283 276 271 274 290 295 293 285 266 247 248 251 256 259 259 265 269 265 263 266 270 276 277
239 240 242 245 248 250 249 250 251 248 244 242 240 235 233 234 235 236 236 234 230 228 227 227 230 233 235 237 242 244 247 252 266 271 270 273 266 260 264 264 262 259 254 249 251 253 253 257 264 263 262 266 280 286 292 288 282 285 287 286 290 291 287 280 279 276 274 274 273 272 264 264 261 262 262 275 276 272 275 274 267 275 279 283 289
237 239 239 242 246 249 249 247 248 248 246 246 247 247 246 244 242 239 236 235 234 233 231 230 230 232 233 235 236 242 245 248 252 255 262 268 271 262 262 264 262 260 259 255 252 252 253 250 251 259 268 272 277 281 282 287 282 278 276 279 281 280 273 274 281 283 280 281 277 276 276 272 270 269 266 264 267 273 277 278 278 283 290 292 295
nan nan nan nan nan nan nan 248 247 249 254 256 253 250 247 245 245 245 241 239 240 236 234 233 233 235 236 237 238 241 246 249 253 257 257 263 268 269 262 262 259 257 255 254 254 252 251 254 254 256 262 264 266 267 266 268 268 268 274 282 285 276 261 266 273 281 279 279 277 273 270 268 268 269 267 267 268 270 276 282 285 290 296 298 297
nan nan nan nan nan nan nan nan nan 251 252 252 251 250 249 250 253 254 253 252 250 248 246 244 242 242 242 242 241 243 245 246 254 254 258 262 267 272 261 254 251 249 248 251 252 252 253 254 256 255 254 258 260 262 266 273 276 275 275 275 252 243 254 261 264 266 268 269 269 269 270 269 266 265 266 268 270 272 278 284 291 296 299 302 304
nan nan nan nan nan nan nan nan nan nan nan nan nan nan nan 250 250 253 255 257 258 256 255 255 256 254 251 248 246 243 244 247 253 260 261 265 269 272 274 265 260 259 255 251 252 252 252 252 252 247 242 241 241 241 242 244 250 260 261 255 254 254 256 260 261 261 261 262 262 263 264 266 266 267 269 269 271 276 282 287 291 295 298 301 304
nan nan nan nan nan nan nan nan nan nan nan nan nan nan nan nan nan nan nan 257 257 256 256 258 261 261 260 255 251 249 249 252 253 258 262 261 268 273 274 274 267 263 260 260 261 261 257 256 255 249 241 238 239 243 245 251 260 257 257 259 257 256 258 259 262 264 262 260 260 260 261 263 264 263 266 269 273 280 285 286 288 292 295 297 301
nan nan nan nan nan nan nan nan nan nan nan nan nan nan nan nan nan nan nan 252 254 253 252 256 257 257 259 259 258 256 255 254 255 259 263 266 268 267 269 272 274 276 270 269 271 274 270 258 246 243 240 236 240 246 252 259 265 268 267 265 262 263 262 261 260 263 264 265 264 261 259 261 264 263 264 268 273 276 278 279 282 286 289 292 294
nan nan nan nan nan nan nan nan nan nan nan nan nan nan nan nan nan nan nan nan 254 255 255 255 257 nan 256 258 260 260 259 257 254 254 260 264 268 270 265 261 260 269 274 266 259 251 252 249 240 234 237 242 248 255 263 267 270 270 269 268 265 265 264 263 262 263 264 264 265 265 262 260 261 264 268 271 274 278 278 276 277 283 287 289 289
nan nan nan nan nan nan nan nan nan nan nan nan nan nan nan nan nan nan nan nan nan nan nan nan nan nan nan nan nan nan 258 258 257 256 257 259 263 263 262 261 260 259 261 265 264 264 262 262 261 257 253 250 254 258 263 264 264 264 264 267 267 266 265 267 267 267 265 263 260 261 260 261 260 262 267 273 275 276 277 278 280 284 285 288 290
nan nan nan nan nan nan nan nan nan nan nan nan nan nan nan nan nan nan nan nan nan nan nan nan nan nan nan nan nan nan nan nan nan 256 256 257 257 258 259 nan nan nan nan nan 257 260 257 252 248 251 253 254 258 262 265 268 270 267 266 266 266 265 265 268 269 266 264 261 257 256 257 259 261 263 265 270 273 273 276 280 285 284 284 285 287
nan nan nan nan nan nan nan nan nan nan nan nan nan nan nan nan nan nan nan nan nan nan nan nan nan nan nan nan nan nan nan nan nan nan nan nan nan nan nan nan nan nan nan nan nan nan nan nan nan 251 253 254 256 261 266 271 272 271 268 266 265 266 266 268 269 267 262 258 257 258 259 261 261 263 266 268 270 270 274 279 283 283 281 286 290
nan nan nan nan nan nan nan nan nan nan nan nan nan nan nan nan nan nan nan nan nan nan nan nan nan nan nan nan nan nan nan nan nan nan nan nan nan nan nan nan nan nan nan nan nan nan nan nan nan 253 253 255 256 258 261 267 269 268 264 262 263 265 267 262 258 258 264 272 274 271 271 270 270 271 271 270 267 268 272 277 277 280 282 284 286
nan nan nan nan nan nan nan nan nan nan nan nan nan nan nan nan nan nan nan nan nan nan nan nan nan nan nan nan nan nan nan nan nan nan nan nan nan nan nan nan nan nan nan nan nan nan nan nan nan nan nan nan 251 252 255 260 264 264 262 261 264 268 264 265 276 281 278 274 275 277 278 279 280 276 273 272 271 270 271 276 278 280 283 283 285
nan nan nan nan nan nan nan nan nan nan nan nan nan nan nan nan nan nan nan nan nan nan nan nan nan nan nan nan nan nan nan nan nan nan nan nan nan nan nan nan nan nan nan nan nan nan 254 253 252 252 248 245 245 248 251 254 256 257 258 260 264 269 279 286 290 285 278 274 272 271 274 277 276 272 270 272 273 270 271 272 276 277 278 279 282
nan nan nan nan nan nan nan nan nan nan nan nan nan nan nan nan nan nan nan nan nan nan nan nan nan nan nan nan nan nan nan nan nan nan nan nan nan nan nan nan nan nan nan 258 256 252 253 255 254 254 254 252 250 250 251 251 250 252 254 257 260 272 281 286 282 278 278 275 270 268 271 273 271 264 262 266 269 268 269 272 274 274 274 274 275
nan nan nan nan nan nan nan nan nan nan nan nan nan nan nan nan nan nan nan nan nan nan nan nan nan nan nan nan nan nan nan nan nan nan nan nan nan nan nan nan nan nan nan nan nan nan nan nan 252 253 252 252 252 252 252 251 250 250 252 256 259 269 275 274 272 273 270 269 268 269 270 270 268 264 256 257 263 266 269 271 271 271 274 278 279
nan nan nan nan nan nan nan nan nan nan nan nan nan nan nan nan nan nan nan nan nan nan nan nan nan nan nan nan nan nan nan nan nan nan nan nan nan nan nan nan nan nan nan nan nan nan nan nan nan nan 248 248 248 250 251 250 249 249 249 251 254 265 269 269 269 270 266 264 267 269 272 271 270 268 263 259 258 261 263 265 268 273 277 280 282
nan nan nan nan nan nan nan nan nan nan nan nan nan nan nan nan nan nan nan nan nan nan nan nan nan nan nan nan nan nan nan nan nan nan nan nan nan nan nan nan nan nan nan nan nan nan nan nan nan nan nan nan 245 246 247 249 250 249 247 246 245 253 261 262 263 264 265 266 268 270 271 273 272 270 267 265 262 260 258 261 266 273 278 280 281
nan nan nan nan nan nan nan nan nan nan nan nan nan nan nan nan nan nan nan nan nan nan nan nan nan nan nan nan nan nan nan nan nan nan nan nan nan nan nan nan nan nan nan nan nan nan nan nan nan nan nan nan nan nan 245 247 250 250 250 248 248 249 256 259 259 259 262 265 263 263 265 268 269 270 270 266 263 261 260 261 265 271 276 280 279
nan nan nan nan nan nan nan nan nan nan nan nan nan nan nan nan nan nan nan nan nan nan nan nan nan nan nan nan nan nan nan nan nan nan nan nan nan nan nan nan nan nan nan nan nan nan nan nan nan nan nan nan nan nan nan nan nan nan 252 250 249 250 246 250 252 255 258 260 259 259 259 260 266 269 270 269 263 260 261 264 267 268 271 276 280
nan nan nan nan nan nan nan nan nan nan nan nan nan nan nan nan nan nan nan nan nan nan nan nan nan nan nan nan nan nan nan nan nan nan nan nan nan nan nan nan nan nan nan nan nan nan nan nan nan nan nan nan nan nan nan nan nan nan nan nan nan 250 248 250 252 256 259 260 259 257 256 257 258 262 265 265 263 262 261 263 266 269 271 274 278
nan nan nan nan nan nan nan nan nan nan nan nan nan nan nan nan nan nan nan nan nan nan nan nan nan nan nan nan nan nan nan nan nan nan nan nan nan nan nan nan nan nan nan nan nan nan nan nan nan nan nan nan nan nan nan nan nan nan nan nan nan 250 249 248 249 252 257 258 259 256 254 252 254 257 259 261 262 264 266 266 265 268 270 271 273
nan nan nan nan nan nan nan nan nan nan nan nan nan nan nan nan nan nan nan nan nan nan nan nan nan nan nan nan nan nan nan nan nan nan nan nan nan nan nan nan nan nan nan nan nan nan nan nan nan nan nan nan nan nan nan nan nan nan nan nan nan nan nan nan nan 249 253 259 261 261 261 259 257 257 256 255 255 258 262 265 264 266 269 271 272
nan nan nan nan nan nan nan nan nan nan nan nan nan nan nan nan nan nan nan nan nan nan nan nan nan nan nan nan nan nan nan nan nan nan nan nan nan nan nan nan nan nan nan nan nan nan nan nan nan nan nan nan nan nan nan nan nan nan nan nan nan nan nan nan nan nan nan nan nan nan nan 257 258 260 259 258 257 259 260 262 262 262 265 268 271
nan nan nan nan nan nan nan nan nan nan nan nan nan nan nan nan nan nan nan nan nan nan nan nan nan nan nan nan nan nan nan nan nan nan nan nan nan nan nan nan nan nan nan nan nan nan nan nan nan nan nan nan nan nan nan nan nan nan nan nan nan nan nan nan nan nan nan nan nan nan nan nan nan nan nan nan 259 259 261 260 260 262 263 265 266
nan nan nan nan nan nan nan nan nan nan nan nan nan nan nan nan nan nan nan nan nan nan nan nan nan nan nan nan nan nan nan nan nan nan nan nan nan nan nan nan nan nan nan nan nan nan nan nan nan nan nan nan nan nan nan nan nan nan nan nan nan nan nan nan nan nan nan nan nan nan nan nan nan nan nan nan 260 262 263 264 264 265 266 268 268
nan nan nan nan nan nan nan nan nan nan nan nan nan nan nan nan nan nan nan nan nan nan nan nan nan nan nan nan nan nan nan nan nan nan nan nan nan nan nan nan nan nan nan nan nan nan nan nan nan nan nan nan nan nan nan nan nan nan nan nan nan nan nan nan nan nan nan nan nan nan nan nan nan nan nan nan nan nan nan 263 264 265 266 268 269
nan nan nan nan nan nan nan nan nan nan nan nan nan nan nan nan nan nan nan nan nan nan nan nan nan nan nan nan nan nan nan nan nan nan nan nan nan nan nan nan nan nan nan nan nan nan nan nan nan nan nan nan nan nan nan nan nan nan nan nan nan nan nan nan nan nan nan nan nan nan nan nan nan nan nan nan nan nan nan nan nan nan nan nan 271
nan nan nan nan nan nan nan nan nan nan nan nan nan nan nan nan nan nan nan nan nan nan nan nan nan nan nan nan nan nan nan nan nan nan nan nan nan nan nan nan nan nan nan nan nan nan nan nan nan nan nan nan nan nan nan nan nan nan nan nan nan nan nan nan nan nan nan nan nan nan nan nan nan nan nan nan nan nan nan nan nan nan nan nan nan
nan nan nan nan nan nan nan nan nan nan nan nan nan nan nan nan nan nan nan nan nan nan nan nan nan nan nan nan nan nan nan nan nan nan nan nan nan nan nan nan nan nan nan nan nan nan nan nan nan nan nan nan nan nan nan nan nan nan nan nan nan nan nan nan nan nan nan nan nan nan nan nan nan nan nan nan nan nan nan nan nan nan nan nan nan
nan nan nan nan nan nan nan nan nan nan nan nan nan nan nan nan nan nan nan nan nan nan nan nan nan nan nan nan nan nan nan nan nan nan nan nan nan nan nan nan nan nan nan nan nan nan nan nan nan nan nan nan nan nan nan nan nan nan nan nan nan nan nan nan nan nan nan nan nan nan nan nan nan nan nan nan nan nan nan nan nan nan nan nan nan
nan nan nan nan nan nan nan nan nan nan nan nan nan nan nan nan nan nan nan nan nan nan nan nan nan nan nan nan nan nan nan nan nan nan nan nan nan nan nan nan nan nan nan nan nan nan nan nan nan nan nan nan nan nan nan nan nan nan nan nan nan nan nan nan nan nan nan nan nan nan nan nan nan nan nan nan nan nan nan nan nan nan nan nan nan
nan nan nan nan nan nan nan nan nan nan nan nan nan nan nan nan nan nan nan nan nan nan nan nan nan nan nan nan nan nan nan nan nan nan nan nan nan nan nan nan nan nan nan nan nan nan nan nan nan nan nan nan nan nan nan nan nan nan nan nan nan nan nan nan nan nan nan nan nan nan nan nan nan nan nan nan nan nan nan nan nan nan nan nan nan